EW6289 Weather Reports


Display with metric or nautical units.
time (UTC)temp
F
wind
direction
speed
MPH
gust
MPH
rain 1hr
in
rain 24hr
in
rain mn
in
humidity
%
barometer
mb
20260509223009 0 262 0.0 0.0 0.00 0.13 0.08 1003.3
20260509221502 0 276 0.0 11.0 0.00 0.13 0.08 1003.5
20260509220058 0 225 3.0 13.0 0.00 0.13 0.08 1003.7
20260509214554 0 234 0.0 0.0 0.00 0.13 0.08 1003.7
20260509213101 0 296 0.0 0.0 0.00 0.14 0.08 1003.9
20260509211609 0 217 0.0 0.0 0.00 0.14 0.08 1003.9
20260509210038 0 236 0.0 7.0 0.00 0.14 0.08 1004.2
20260509204538 0 229 0.0 6.0 0.00 0.14 0.08 1004.2
20260509203039 0 230 0.0 0.0 0.00 0.14 0.08 1004.3
20260509201525 0 266 0.0 0.0 0.00 0.14 0.08 1004.6
20260509200018 0 280 0.0 0.0 0.00 0.14 0.08 1004.8
20260509194513 0 229 0.0 0.0 0.00 0.14 0.08 1004.9
20260509193009 0 298 0.0 0.0 0.00 0.14 0.08 1005.0
20260509191505 0 240 0.0 0.0 0.00 0.14 0.08 1005.1
20260509190104 0 302 0.0 0.0 0.00 0.14 0.08 1005.3
20260509184554 0 197 0.0 0.0 0.00 0.14 0.08 1005.6
20260509183050 0 283 0.0 0.0 0.00 0.14 0.08 1005.6
20260509181554 0 219 0.0 0.0 0.00 0.14 0.08 1005.6
20260509180037 0 291 5.0 18.0 0.00 0.14 0.08 1005.7
20260509174535 0 309 0.0 0.0 0.00 0.14 0.08 1005.7
20260509173029 0 217 0.0 0.0 0.00 0.14 0.08 1005.8
20260509171525 0 298 0.0 0.0 0.00 0.14 0.08 1005.6
20260509170050 0 231 0.0 0.0 0.00 0.14 0.08 1005.7
20260509164546 0 211 0.0 0.0 0.00 0.14 0.08 1005.6
20260509163050 0 292 0.0 0.0 0.00 0.14 0.08 1005.6
20260509161534 0 214 0.0 0.0 0.00 0.14 0.08 1005.6
20260509160030 0 230 0.0 0.0 0.00 0.14 0.08 1005.6
20260509154526 0 252 0.0 0.0 0.01 0.14 0.08 1005.6
20260509153022 0 206 0.0 0.0 0.02 0.14 0.08 1005.6
20260509151516 0 214 0.0 0.0 0.03 0.14 0.08 1005.6
20260509150011 0 269 0.0 0.0 0.03 0.14 0.08 1005.7
20260509144507 0 198 0.0 0.0 0.02 0.13 0.07 1005.8
20260509143109 0 281 0.0 0.0 0.01 0.12 0.06 1005.8
20260509141556 0 232 0.0 0.0 0.00 0.11 0.05 1005.8
20260509140052 0 192 0.0 0.0 0.01 0.11 0.05 1005.7
20260509134553 0 326 0.0 0.0 0.02 0.11 0.05 1005.8
20260509133050 0 225 0.0 0.0 0.03 0.11 0.05 1005.9
20260509131536 0 200 0.0 0.0 0.02 0.10 0.04 1005.9
20260509130031 0 222 0.0 0.0 0.02 0.10 0.04 1006.0
20260509124526 0 225 0.0 1.0 0.01 0.09 0.03 1006.0
20260509123053 0 260 0.0 0.0 0.00 0.08 0.02 1006.0
20260509121548 0 280 0.0 0.0 0.01 0.08 0.02 1006.0
20260509120042 0 279 0.0 0.0 0.01 0.08 0.02 1006.1
20260509114545 0 288 0.0 0.0 0.01 0.08 0.02 1006.0
20260509113033 0 271 0.0 0.0 0.01 0.08 0.02 1006.1
20260509111529 0 206 0.0 0.0 0.00 0.07 0.01 1005.9
20260509110022 0 259 0.0 0.0 0.00 0.07 0.01 1005.8
20260509104517 0 253 0.0 0.0 0.00 0.07 0.01 1005.7
20260509103013 0 96 0.0 0.0 0.00 0.07 0.01 1005.7
20260509101508 0 96 0.0 0.0 0.00 0.07 0.01 1005.7
20260509100002 0 96 0.0 0.0 0.00 0.07 0.01 1005.8
20260509094557 0 96 0.0 0.0 0.00 0.07 0.01 1006.0
20260509093054 0 96 0.0 0.0 0.00 0.07 0.01 1006.1
20260509091551 0 96 0.0 0.0 0.00 0.07 0.01 1006.1
20260509090045 0 96 0.0 0.0 0.01 0.07 0.01 1006.4
20260509084518 0 96 0.0 0.0 0.01 0.07 0.01 1006.5
20260509083005 0 96 0.0 0.0 0.01 0.07 0.01 1006.6
20260509081600 0 96 0.0 0.0 0.01 0.07 0.01 1006.4
20260509080136 0 96 0.0 0.0 0.00 0.06 0.00 1006.7
20260509074551 0 96 0.0 0.0 0.00 0.06 0.00 1006.6
20260509073137 0 96 0.0 0.0 0.00 0.06 0.00 1006.6
20260509071539 0 96 0.0 0.0 0.00 0.06 0.00 1006.5
20260509070034 0 57 0.0 0.0 0.00 0.06 0.00 1006.6
20260509064530 0 57 0.0 0.0 0.00 0.06 0.00 1006.6
20260509063030 0 57 0.0 0.0 0.00 0.06 0.00 1006.8
20260509061522 0 57 0.0 0.0 0.00 0.06 0.00 1006.8
20260509060016 0 57 0.0 0.0 0.00 0.06 0.00 1007.0
20260509054520 0 57 0.0 0.0 0.00 0.06 0.00 1007.3
20260509053012 0 57 0.0 0.0 0.00 0.06 0.00 1007.7
20260509051605 0 57 0.0 0.0 0.00 0.06 0.00 1007.7
20260509050056 0 57 0.0 0.0 0.00 0.06 0.00 1007.8
20260509044552 0 57 0.0 0.0 0.00 0.06 0.00 1007.8
20260509043054 0 57 0.0 0.0 0.00 0.06 0.00 1008.0
20260509041540 0 57 0.0 0.0 0.00 0.06 0.00 1008.3
20260509040035 0 57 0.0 0.0 0.01 0.06 0.00 1008.5
20260509034532 0 57 0.0 0.0 0.01 0.06 0.00 1008.6
20260509033027 0 57 0.0 0.0 0.02 0.06 0.06 1008.8
20260509031521 0 57 0.0 0.0 0.03 0.06 0.06 1009.0
20260509030016 0 57 0.0 0.0 0.03 0.05 0.05 1009.2
20260509024512 0 57 0.0 0.0 0.03 0.05 0.05 1009.5
20260509023015 0 57 0.0 0.0 0.02 0.04 0.04 1009.7
20260509021533 0 57 0.0 0.0 0.01 0.03 0.03 1009.6
20260509020028 0 57 0.0 0.0 0.01 0.02 0.02 1009.4
20260509014521 0 57 0.0 0.0 0.01 0.02 0.02 1009.2
20260509013039 0 57 0.0 0.0 0.01 0.02 0.02 1008.6
20260509011513 0 57 0.0 0.0 0.01 0.02 0.02 1008.4
20260509010008 0 57 0.0 0.0 0.00 0.01 0.01 1008.4
20260509004507 0 57 0.0 0.0 0.00 0.01 0.01 1008.2
20260509003100 0 57 0.0 0.0 0.00 0.01 0.01 1007.9
20260509001553 0 57 0.0 0.0 0.00 0.01 0.01 1008.0
20260509000049 0 57 0.0 0.0 0.00 0.01 0.01 1007.9
20260508234546 0 57 0.0 0.0 0.00 0.01 0.01 1007.8
20260508233038 0 57 0.0 0.0 0.00 0.01 0.01 1007.7
20260508231534 0 57 0.0 0.0 0.00 0.01 0.01 1007.8
20260508230042 0 99 0.0 0.0 0.00 0.01 0.01 1008.1
20260508224522 0 99 0.0 0.0 0.00 0.01 0.01 1008.2